Home   Weather   Legnica   Past weeks

Flag for Poland Past Weather in Legnica, Poland — Yesterday and Last 2 Weeks

Now
71 °F

Overcast.


Feels Like: 76 °F
Forecast: 57 / 69 °F
Wind: 6 mph from Southeast

Location: Wroclaw Ii

Current Time: Oct 1, 2016 at 3:49:48 PM

Latest Report: Oct 1, 2016 at 3:00 PM


Visibility: 22 mi

Pressure: 29.86 "Hg

Humidity: 63%

Dew Point: 58 °F

Location of LegnicaLocation

Past Weather in Legnica — Graph

°F

Legnica Temperature Yesterday

Maximum temperature yesterday: 75 °F (at 5:00 PM)
Minimum temperature yesterday: 59 °F (at 2:00 AM)
Average temperature yesterday: 67 °F

High & Low Weather Summary for the Past Weeks

 TemperatureHumidityPressure
High83 °F (Sep 16, 4:00 PM)100% (Sep 25, 7:00 AM)30.36 "Hg (Sep 25, 7:00 AM)
Low39 °F (Sep 23, 5:00 AM)40% (Sep 25, 3:00 PM)29.81 "Hg (Sep 17, 6:00 AM)
Average58 °F76%30.11 "Hg
* Reported Sep 16 1:00 PM — Oct 1 1:00 PM, Legnica, Weather by CustomWeather, © 2016

Note: Actual official high and low records may vary slightly from our data, if they occured in-between our weather recording intervals... More about our weather records

Advertising

Legnica Weather History for the Previous 24 Hours

Scroll right to see more
 ConditionsComfort  
Time TempWeatherWind HumidityBarometerVisibility
1:00 PM
Sat, Oct 1
68 °FOvercast.5 mph66%29.91 "Hg25 mi
11:00 AM65 °FOvercast.7 mph70%29.94 "Hg25 mi
10:00 AM62 °FOvercast.6 mph77%29.95 "Hg25 mi
9:00 AM59 °FOvercast.3 mph87%29.97 "Hg19 mi
8:00 AM56 °FOvercast.2 mph89%29.97 "Hg12 mi
7:00 AM55 °FOvercast.1 mph97%29.97 "Hg9 mi
6:00 AM54 °FOvercast.1 mph98%29.98 "Hg16 mi
5:00 AM54 °FFog.No wind98%29.98 "Hg9 mi
4:00 AM54 °FFog.No wind95%29.98 "Hg19 mi
2:00 AM58 °FOvercast.2 mph90%30.01 "Hg31 mi
1:00 AM59 °FSprinkles. Overcast.1 mph78%30.01 "Hg19 mi
12:00 AM61 °FOvercast.2 mph71%29.99 "Hg31 mi
11:00 PM
Fri, Sep 30
62 °FOvercast.2 mph72%29.99 "Hg31 mi
10:00 PM63 °FOvercast.2 mph72%29.99 "Hg25 mi
9:00 PM65 °FOvercast.1 mph69%29.98 "Hg25 mi
8:00 PM68 °FOvercast.3 mph68%29.95 "Hg25 mi
7:00 PM68 °FOvercast.2 mph64%29.92 "Hg25 mi
6:00 PM71 °FOvercast.2 mph56%29.91 "Hg25 mi
5:00 PM75 °FPartly sunny.6 mph48%29.91 "Hg31 mi
4:00 PM74 °FPartly sunny.3 mph50%29.93 "Hg25 mi
3:00 PM75 °FOvercast.5 mph49%29.94 "Hg25 mi
Weather by CustomWeather, © 2016

See weather overviewHow to use our weather pages